Location: ??
(35.5653°N, 139.6194°E)
Time: 14:00:15
(UTC+00:00)

Meteor 1-26 Rocket - Pass Details

Date: 20 November 2019
Orbit: 816 x 919 km, 81.3° (Epoch: 07 December)

Event Time Altitude Azimuth Distance (km) Brightness Sun altitude
Rises 20:48:57 0° 346° (NNW) 3,443 7.0 -7.1°
Reaches altitude 10° 20:51:27 10° 341° (NNW) 2,487 6.3 -6.6°
Maximum altitude 20:56:54 53° 266° (W) 1,024 4.4 -5.6°
Drops below altitude 10° 21:02:11 10° 191° (S) 2,417 6.7 -4.6°
Sets 21:04:36 0° 186° (S) 3,337 7.5 -4.1°
